Airfield :
LOGIN :

Register | Disclaimer

   EN    FR    IT 

 










Legend :    VFR   Marginal VFR   IFR   Intensive IFR   Very Intensive IFR
Visi :
Ceiling :
>= 8 km
>= 3000ft
5 to 8 km
1000 to 3000 ft
1500m to 5 km
500 to 1000 ft
800 to 1500m
200 to 500 ft
< 800m
< 200 ft
Symbols :   Thunderstorms  Fog  Heavy snow  Heavy precipitations  Wind > 20 kt
SIGMETs :     Misc.  Thunderstorms  Icing  Turbulence  Mountain Waves  Volcanic Ashes






- Airport Elevation : 74 ft
- IATA code : NDZ


ETMN - Cuxhaven Nordholz Sea AB

CURRENT METAR :
  • 080520Z VRB02KT 9999 SCT310 M05/M07 Q1039 BLU+BLU+

EXPIRED METARs :
  • 080420Z 14002KT 9999 SCT320 M06/M07 Q1039 BLU+
  • 080320Z 14002KT 9999 FEW300 M06/M07 Q1039 BLU+

TAF TAF ETMN
Valid from the 08 at 06:00 until the 08 at 15:00 UTC


080533Z 0806/0815 16005KT 9999 NSW SCT330



MET'MAP, your aeronautical weather chart ! - Copyright ORBIFLY December 2007 - Disclaimer

ORBIFLY MET'MAP TEAM :

Programming & Development : Alexandra Zaïnal
Original concept : Baudouin d'Aumeries
Technical & hardware support : Manuel Goepfert
Assistance : Marc-Olivier Méhu




SOURCES & CREDITS :

   NOAA